Waarnemingen

Advertentie
Mijn weer
Kempten, Duitsland (10946): temperatuur & dauwpunt: 22.02.2017 06:00:00 - 28.02.2017 06:00:00 (CET)Kempten, Duitsland (10946): temperatuur 5cm & temperatuur -5cm: 22.02.2017 06:00:00 - 28.02.2017 06:00:00 (CET)Kempten, Duitsland (10946): temperatuur -20cm & temperatuur -100cm: 22.02.2017 06:00:00 - 28.02.2017 06:00:00 (CET)Kempten, Duitsland (10946): windsnelheid & windstoten: 22.02.2017 06:00:00 - 28.02.2017 06:00:00 (CET)Kempten, Duitsland (10946): windrichting: 22.02.2017 06:00:00 - 28.02.2017 06:00:00 (CET)Kempten, Duitsland (10946): luchtdruk: 22.02.2017 06:00:00 - 28.02.2017 06:00:00 (CET)Kempten, Duitsland (10946): zicht: 22.02.2017 06:00:00 - 28.02.2017 06:00:00 (CET)Kempten, Duitsland (10946): Zonneschijnduur: 22.02.2017 06:00:00 - 28.02.2017 06:00:00 (CET)Kempten, Duitsland (10946): neerslag: 22.02.2017 06:00:00 - 28.02.2017 06:00:00 (CET)
Datum & Tijd tt [°C] td [°C] tt 5cm [°C] tt -5cm [°C] tt -20cm [°C] tt -100cm [°C] ff [km/u] ff [kn] fx [km/u] fx [kn] dd ppp [hPa] vv [km] sd [min] rr [mm]
28.02.2017 06:00:00 5,1 2,0 3,4 0,8 3,6 5,2 13 7 42 23 WZW 1001,9 13 0 0,1
28.02.2017 05:00:00 7,3 -1,6 4,7 0,5 3,7 5,2 17 9 32 17 W 997,8 43 0 0,0
28.02.2017 04:00:00 0,3 -2,5 -2,0 0,5 3,9 5,2 10 5 16 9 OZO 999,0 27 0 0,0
28.02.2017 03:00:00 -0,3 -2,4 -1,7 0,6 4,1 5,2 7 4 14 8 Z 999,9 23 0 0,0
28.02.2017 02:00:00 -0,4 -2,4 -1,2 0,6 4,3 5,2 8 4 11 6 OZO 1001,8 21 0 0,0
28.02.2017 01:00:00 0,0 -2,4 -1,0 0,6 4,6 5,2 10 5 13 7 OZO 1003,1 22 0 0,0
28.02.2017 00:00:00 0,8 -1,6 -1,3 0,3 4,9 5,2 9 5 16 8 OZO 1003,9 29 0 0,0
27.02.2017 23:00:00 1,7 -0,9 -0,8 0,8 5,2 5,2 8 5 13 7 OZO 1004,3 21 0 0,0
27.02.2017 22:00:00 1,9 -0,6 -1,1 1,3 5,6 5,2 8 4 13 7 OZO 1004,0 22 0 0,0
27.02.2017 21:00:00 2,5 -0,6 0,7 2,3 5,9 5,2 7 4 12 7 OZO 1004,2 23 0 0,0
27.02.2017 20:00:00 3,4 -0,1 0,5 3,5 6,2 5,2 6 3 11 6 OZO 1004,6 12 0 0,0
27.02.2017 19:00:00 6,4 0,8 2,6 5,0 6,3 5,2 0 0 11 6 O 1004,1 26 0 0,0
27.02.2017 18:00:00 11,7 0,2 7,9 7,5 6,3 5,2 6 3 13 7 NNW 1002,2 40 47 0,0
27.02.2017 17:00:00 13,9 -0,1 13,4 10,1 6,0 5,2 8 4 22 12 NNW 1001,9 36 60 0,0
27.02.2017 16:00:00 14,9 -1,5 15,3 12,1 5,5 5,2 6 3 13 7 N 1002,3 43 60 0,0
27.02.2017 15:00:00 15,1 -2,0 16,4 13,1 4,8 5,2 6 4 13 7 ZZO 1002,9 18 60 0,0
27.02.2017 14:00:00 14,7 -2,0 16,3 13,2 4,0 5,2 7 4 14 8 ZZO 1004,2 43 59 0,0
27.02.2017 13:00:00 13,2 -0,6 15,3 13,1 3,2 5,2 8 5 17 9 ZZO 1006,0 30 60 0,0
27.02.2017 12:00:00 10,7 -0,9 13,2 10,7 2,7 5,2 3 1 11 6 ZZO 1008,3 31 55 0,0
27.02.2017 11:00:00 6,6 -0,4 7,2 3,2 2,7 5,2 6 4 10 5 ZZO 1010,6 40 28 0,0
27.02.2017 10:00:00 6,2 -1,1 6,9 0,3 2,7 5,2 6 4 11 6 ZZO 1011,4 36 53 0,0
27.02.2017 09:00:00 1,9 -1,9 1,0 0,2 2,8 5,2 8 5 13 7 OZO 1013,6 37 25 0,0
27.02.2017 08:00:00 -0,6 -2,6 -2,5 0,1 2,9 5,2 8 5 11 6 OZO 1015,2 38 0 0,0
27.02.2017 07:00:00 -1,4 -3,1 -3,0 0,1 3,0 5,2 8 5 11 6 OZO 1015,6 39 0 0,0
27.02.2017 06:00:00 -1,8 -3,5 -3,3 0,2 3,1 5,2 7 4 10 5 OZO 1016,4 38 0 0,0
27.02.2017 05:00:00 0,0 -2,5 -2,0 0,3 3,2 5,2 8 4 11 6 OZO 1016,2 52 0 0,0
27.02.2017 04:00:00 -0,8 -2,7 -2,4 0,3 3,3 5,2 8 5 12 6 OZO 1016,8 44 0 0,0
27.02.2017 03:00:00 0,3 -2,1 -1,7 0,4 3,5 5,2 9 5 13 7 O 1017,1 36 0 0,0
27.02.2017 02:00:00 0,6 -2,1 -1,9 0,5 3,6 5,2 6 3 12 7 Z 1017,5 38 0 0,0
27.02.2017 01:00:00 1,1 -1,3 -1,5 0,5 3,8 5,2 8 4 11 6 OZO 1017,9 34 0 0,0
27.02.2017 00:00:00 1,1 -1,4 -2,0 0,6 4,0 5,2 5 3 11 6 ZZO 1018,1 32 0 0,0
26.02.2017 23:00:00 1,0 -1,7 -1,5 0,6 4,3 5,2 7 4 10 6 ZO 1018,5 24 0 0,0
26.02.2017 22:00:00 2,2 -1,3 -1,2 0,7 4,6 5,2 6 3 14 8 ZZO 1018,3 34 0 0,0
26.02.2017 21:00:00 2,6 -1,3 0,0 1,5 4,9 5,2 8 4 10 6 OZO 1018,5 25 0 0,0
26.02.2017 20:00:00 3,3 -1,1 0,4 2,6 5,0 5,2 6 3 9 5 ZO 1018,2 25 0 0,0
26.02.2017 19:00:00 6,9 -1,0 3,8 4,2 5,1 5,2 3 2 11 6 ZZO 1016,9 30 0 0,0
26.02.2017 18:00:00 9,3 -3,2 6,8 5,9 5,0 5,1 2 1 16 9 Z 1016,1 60 14 0,0
26.02.2017 17:00:00 10,0 -1,5 9,3 7,3 4,8 5,1 4 2 17 9 ZO 1015,8 63 7 0,0
26.02.2017 16:00:00 11,2 -4,0 10,8 8,7 4,5 5,1 5 3 11 6 NW 1015,6 61 0 0,0
26.02.2017 15:00:00 10,6 -4,1 10,4 8,2 4,2 5,1 8 5 19 11 ZW 1015,9 68 0 0,0
26.02.2017 14:00:00 10,3 -3,7 10,6 8,1 3,7 5,1 10 6 32 17 ZZW 1016,6 46 0 0,0
26.02.2017 13:00:00 10,0 -3,3 10,7 8,9 3,2 5,1 15 8 32 18 ZZW 1017,3 43 29 0,0
26.02.2017 12:00:00 8,4 -2,0 10,2 7,1 2,9 5,1 11 6 28 15 ZW 1018,8 39 18 0,0
26.02.2017 11:00:00 6,5 -1,2 7,1 1,8 2,9 5,1 7 4 12 7 ZZO 1019,8 49 2 0,0
26.02.2017 10:00:00 3,6 -1,8 3,5 0,7 3,0 5,1 6 3 11 6 ZZO 1020,5 62 2 0,0
26.02.2017 09:00:00 1,3 -2,3 0,5 0,5 3,0 5,1 5 3 8 4 OZO 1020,9 45 20 0,0
26.02.2017 08:00:00 -0,2 -3,0 -1,0 0,4 3,1 5,1 7 4 16 8 OZO 1020,9 19 0 0,0
26.02.2017 07:00:00 -0,3 -3,1 -2,3 0,3 3,2 5,1 11 6 20 11 Z 1020,4 68 0 0,0
26.02.2017 06:00:00 -0,5 -2,9 -1,9 0,4 3,3 5,1 9 5 16 9 ZO 1020,7 53 0 0,0
26.02.2017 05:00:00 0,5 -2,9 -0,9 0,5 3,4 5,1 10 5 15 8 Z 1020,8 53 0 0,0
26.02.2017 04:00:00 -0,6 -2,9 -2,0 0,5 3,6 5,1 4 2 10 5 Z 1021,1 55 0 0,0
26.02.2017 03:00:00 -0,3 -2,6 -1,6 0,6 3,7 5,1 6 3 16 9 ZZO 1021,1 52 0 0,0
26.02.2017 02:00:00 0,0 -2,4 -1,5 0,6 3,9 5,1 9 5 14 8 ZO 1020,9 56 0 0,0
26.02.2017 01:00:00 -0,4 -2,2 -1,8 0,5 4,1 5,1 10 5 15 8 ZO 1021,4 36 0 0,0
26.02.2017 00:00:00 -0,4 -1,8 -2,0 0,6 4,3 5,1 9 5 19 10 ZZO 1022,1 24 0 0,0
25.02.2017 23:00:00 -0,5 -1,6 -1,7 0,8 4,6 5,1 6 3 11 6 OZO 1022,9 15 0 0,0
25.02.2017 22:00:00 -0,6 -1,4 -1,8 0,9 4,9 5,1 7 4 13 7 OZO 1022,8 12 0 0,0
25.02.2017 21:00:00 -0,1 -0,9 -2,0 1,0 5,2 5,1 6 3 10 6 ZZO 1022,8 14 0 0,0
25.02.2017 20:00:00 -0,4 -1,3 -1,6 1,3 5,5 5,1 7 4 9 5 OZO 1023,4 12 0 0,0
25.02.2017 19:00:00 1,3 -0,4 -0,3 2,6 5,8 5,1 6 3 7 4 O 1022,9 14 0 0,0
25.02.2017 18:00:00 4,3 0,4 2,4 4,6 5,8 5,1 5 3 9 5 NO 1021,4 24 26 0,0
25.02.2017 17:00:00 5,1 0,4 5,4 6,7 5,7 5,1 8 4 14 7 ONO 1020,8 36 60 0,0
25.02.2017 16:00:00 5,4 0,7 6,7 8,0 5,5 5,1 8 5 18 10 OZO 1020,7 36 55 0,0
25.02.2017 15:00:00 4,7 -0,6 6,8 9,1 5,1 5,1 9 5 22 12 O 1021,6 16 60 0,0
25.02.2017 14:00:00 4,9 -1,3 7,2 10,3 4,6 5,1 9 5 18 10 O 1022,7 14 60 0,0
25.02.2017 13:00:00 4,7 -1,0 6,6 10,4 4,0 5,1 10 5 19 10 O 1023,4 19 60 0,0
25.02.2017 12:00:00 3,3 -1,0 5,2 10,9 3,4 5,1 8 4 15 8 NNO 1024,7 13 60 0,0
25.02.2017 11:00:00 0,0 -2,3 0,5 7,8 3,2 5,1 3 2 8 4 OZO 1025,5 9 42 0,0
25.02.2017 10:00:00 -2,0 -2,3 -0,4 3,1 3,1 5,1 6 4 9 5 OZO 1026,1 0,8 0 0,0
25.02.2017 09:00:00 -1,7 -1,7 -0,8 1,5 3,1 5,1 5 3 11 6 ZO 1025,4 0,5 0 0,0
25.02.2017 08:00:00 -1,6 -1,6 -1,2 0,8 3,2 5,1 3 2 9 5 OZO 1025,4 0,2 0 0,0
25.02.2017 07:00:00 -1,7 -1,7 -1,3 0,7 3,3 5,1 5 3 9 5 ZZO 1024,9 0,1 0 0,0
25.02.2017 06:00:00 -1,3 -1,3 -0,9 0,9 3,4 5,1 5 3 7 4 OZO 1024,6 0,1 0 0,0
25.02.2017 05:00:00 -0,7 -0,7 -0,9 1,0 3,4 5,0 2 1 10 5 W 1024,0 1,6 0 0,0
25.02.2017 04:00:00 -0,5 -0,5 -0,3 1,1 3,5 5,0 5 3 7 4 O 1023,9 0,2 0 0,0
25.02.2017 03:00:00 -0,2 -0,2 -0,1 1,2 3,6 5,0 0 0 5 3 N 1024,1 0,8 0 0,0
25.02.2017 02:00:00 -0,4 -0,6 -0,3 1,0 3,7 5,0 1 1 6 3 ZO 1023,5 1,9 0 0,0
25.02.2017 01:00:00 -0,4 -0,6 -0,2 0,9 3,8 5,0 0 0 5 3 N 1023,1 2,0 0 0,0
25.02.2017 00:00:00 0,0 -0,1 -0,1 1,1 3,9 5,0 4 2 8 4 ZO 1022,6 3,5 0 0,0
24.02.2017 23:00:00 0,2 0,0 0,0 1,2 4,0 5,0 4 2 5 3 ZZO 1022,1 1,5 0 0,0
24.02.2017 22:00:00 0,3 0,3 0,0 1,1 4,2 5,0 2 1 6 3 ZZO 1021,5 3,1 0 0,1
24.02.2017 21:00:00 0,3 -0,1 0,0 1,1 4,4 5,0 1 1 6 4 NNW 1020,9 1,3 0 0,6
24.02.2017 20:00:00 0,5 0,0 0,0 1,6 4,6 5,0 2 1 5 3 O 1020,2 4,1 0 0,1
24.02.2017 19:00:00 0,6 0,2 0,0 1,7 4,8 5,0 3 2 13 7 O 1019,1 17 0 0,0
24.02.2017 18:00:00 0,5 -0,2 0,0 1,9 5,0 5,0 11 6 16 9 Z 1017,5 35 0 0,0
24.02.2017 17:00:00 0,5 -0,3 0,0 2,4 5,3 4,9 5 3 13 7 Z 1016,8 35 0 0,3
24.02.2017 16:00:00 0,3 -0,2 0,0 2,4 5,4 4,9 6 4 27 15 W 1016,6 1,6 0 2,4
24.02.2017 15:00:00 1,3 -0,2 1,1 7,8 5,1 4,9 20 11 32 18 NW 1015,6 2,4 42 0,0
24.02.2017 14:00:00 3,7 -0,3 5,2 7,2 4,8 4,9 17 9 34 18 ZW 1013,8 23 16 0,0
24.02.2017 13:00:00 3,6 0,3 4,6 7,1 4,6 4,9 14 7 34 18 ZW 1014,1 33 8 0,2
24.02.2017 12:00:00 2,3 0,4 2,5 4,8 4,6 4,9 15 8 32 18 ZW 1015,0 20 0 0,0
24.02.2017 11:00:00 1,7 0,5 1,8 2,2 4,9 4,9 10 5 21 11 ZW 1014,9 31 0 0,8
24.02.2017 10:00:00 1,3 0,3 0,5 1,3 5,1 4,9 12 6 19 11 ZZW 1014,6 7 0 1,6
24.02.2017 09:00:00 2,1 0,5 1,5 2,9 5,3 4,9 10 6 26 14 WZW 1013,7 14 0 0,8
24.02.2017 08:00:00 1,9 0,5 1,3 2,8 5,5 4,9 14 8 27 15 ZW 1012,9 6 0 0,6
24.02.2017 07:00:00 1,9 1,0 1,3 3,0 5,7 4,9 13 7 26 14 ZW 1011,9 3,7 0 0,6
24.02.2017 06:00:00 2,2 1,0 1,7 3,5 5,8 4,9 18 10 39 21 ZZW 1010,8 27 0 0,6
24.02.2017 05:00:00 2,6 1,3 2,1 4,1 6,0 4,8 16 9 40 21 WZW 1009,8 7 0 1,6
24.02.2017 04:00:00 5,0 2,3 3,9 5,0 6,1 4,8 23 12 61 33 W 1007,4 7 0 0,3
24.02.2017 03:00:00 7,7 3,0 7,0 5,6 6,1 4,8 22 12 63 34 W 1005,5 61 0 0,0
24.02.2017 02:00:00 8,4 3,1 7,9 5,9 6,2 4,8 31 17 61 33 W 1004,4 70 0 0,0
24.02.2017 01:00:00 8,8 3,7 8,2 5,9 6,2 4,8 27 14 53 29 W 1003,8 37 0 0,0
24.02.2017 00:00:00 9,8 2,9 8,6 5,9 6,3 4,8 18 10 62 34 W 1002,9 33 0 0,0
23.02.2017 23:00:00 10,7 2,0 9,7 5,9 6,4 4,8 27 15 54 29 W 1002,7 36 0 0,0
23.02.2017 22:00:00 12,2 -1,5 10,9 5,8 6,6 4,8 20 11 48 26 W 1002,1 51 0 0,0
23.02.2017 21:00:00 13,4 -3,3 11,7 5,5 6,8 4,8 26 14 66 35 W 1000,8 43 0 0,0
23.02.2017 20:00:00 14,1 -4,4 12,0 5,5 7,0 4,8 26 14 61 33 W 1000,1 52 0 0,0
23.02.2017 19:00:00 14,3 -4,0 11,9 5,8 7,2 4,8 23 12 64 35 WZW 999,9 66 0 0,0
23.02.2017 18:00:00 13,3 -1,8 9,5 7,0 7,3 4,7 10 5 29 16 ZW 1000,3 70 13 0,0
23.02.2017 17:00:00 14,4 -1,6 12,0 8,9 7,2 4,7 14 8 38 21 WZW 1000,4 67 39 0,0
23.02.2017 16:00:00 15,4 -1,7 14,9 10,6 7,0 4,7 18 10 44 24 WZW 1001,2 29 38 0,0
23.02.2017 15:00:00 15,8 -1,3 15,5 12,5 6,7 4,7 19 11 47 26 WZW 1002,3 44 37 0,0
23.02.2017 14:00:00 16,3 -2,9 15,9 11,4 6,4 4,7 20 11 44 24 ZW 1003,6 54 6 0,0
23.02.2017 13:00:00 16,5 -2,8 17,0 13,2 5,9 4,7 19 10 40 21 W 1004,7 48 30 0,0
23.02.2017 12:00:00 15,6 -1,7 15,2 14,2 5,4 4,7 14 8 27 15 W 1005,8 35 59 0,0
23.02.2017 11:00:00 13,6 -1,0 14,2 11,6 5,0 4,7 14 8 27 14 W 1007,2 42 60 0,0
23.02.2017 10:00:00 13,5 -2,4 13,6 8,6 4,8 4,7 11 6 44 24 W 1007,7 47 60 0,0
23.02.2017 09:00:00 11,3 -2,5 9,7 4,4 4,9 4,7 10 6 25 14 ZW 1009,2 48 60 0,0
23.02.2017 08:00:00 9,1 -1,7 7,1 3,1 5,0 4,7 10 6 32 17 WZW 1010,8 52 13 0,0
23.02.2017 07:00:00 7,6 0,4 5,6 3,1 5,2 4,6 12 6 37 20 WZW 1011,8 65 0 0,0
23.02.2017 06:00:00 7,7 1,3 5,9 3,5 5,3 4,6 18 10 35 19 ZW 1012,3 47 0 0,0
23.02.2017 05:00:00 5,9 2,2 4,0 3,0 5,5 4,6 10 5 27 14 ZW 1013,3 28 0 0,0
23.02.2017 04:00:00 5,5 2,5 4,0 3,4 5,7 4,6 16 9 32 18 WZW 1013,9 24 0 0,0
23.02.2017 03:00:00 5,5 2,7 4,0 3,7 5,8 4,6 11 6 25 14 WZW 1014,4 25 0 0,0
23.02.2017 02:00:00 5,9 2,8 5,1 4,8 5,9 4,6 11 6 31 17 WZW 1014,6 27 0 0,0
23.02.2017 01:00:00 7,2 3,0 6,6 5,3 6,0 4,6 14 8 29 16 WZW 1014,7 31 0 0,0
23.02.2017 00:00:00 7,7 3,1 6,7 5,3 6,2 4,6 13 7 32 17 ZW 1014,4 49 0 0,0
22.02.2017 23:00:00 6,6 3,2 5,9 5,3 6,3 4,6 18 10 36 20 ZW 1015,0 32 0 0,0
22.02.2017 22:00:00 6,3 3,2 5,8 5,3 6,5 4,6 13 7 29 15 WZW 1015,8 33 0 0,0
22.02.2017 21:00:00 6,5 3,3 5,9 5,5 6,7 4,6 12 7 28 15 WZW 1015,8 37 0 0,0
22.02.2017 20:00:00 6,5 3,4 5,5 5,3 6,9 4,6 8 4 26 14 ZW 1015,7 46 0 0,0
22.02.2017 19:00:00 6,9 3,4 5,7 5,7 7,2 4,6 10 6 23 12 WZW 1015,9 48 0 0,0
22.02.2017 18:00:00 7,6 3,7 6,6 7,1 7,3 4,5 14 8 44 24 WZW 1015,1 52 8 0,0
22.02.2017 17:00:00 8,7 4,1 8,4 9,3 7,2 4,5 18 10 40 22 WZW 1014,3 48 35 0,0
22.02.2017 16:00:00 9,9 4,3 11,6 11,9 6,9 4,5 16 9 39 21 ZW 1014,6 45 51 0,0
22.02.2017 15:00:00 10,0 4,7 12,0 12,3 6,6 4,5 14 8 34 18 WZW 1014,8 28 22 0,0
22.02.2017 14:00:00 9,3 4,6 10,7 11,3 6,3 4,5 19 10 41 22 WZW 1015,7 45 11 0,0
22.02.2017 13:00:00 9,1 4,9 11,1 11,9 5,9 4,5 24 13 45 24 WZW 1016,2 25 40 0,0
22.02.2017 12:00:00 9,1 4,7 10,6 11,4 5,6 4,5 21 11 43 23 W 1016,5 31 16 0,0
22.02.2017 11:00:00 9,3 4,9 9,9 10,3 5,4 4,5 21 11 55 30 WZW 1015,9 34 31 0,0
22.02.2017 10:00:00 8,5 4,7 7,9 7,3 5,4 4,5 16 9 38 21 WZW 1016,5 60 0 0,0
22.02.2017 09:00:00 8,1 5,0 7,1 6,4 5,4 4,5 14 8 34 18 ZW 1016,6 70 0 0,0
22.02.2017 08:00:00 7,9 5,3 6,7 6,0 5,4 4,5 12 6 24 13 WZW 1016,8 58 0 0,0
22.02.2017 07:00:00 7,6 5,7 6,5 6,0 5,4 4,5 11 6 24 13 ZW 1017,0 63 0 0,0
22.02.2017 06:00:00 7,4 6,1 6,5 6,1 5,4 4,5 13 7 29 15 ZW 1017,5 51 0 0,3

tt = temperatuur
td = dauwpunt
tt 5cm = temperatuur 5cm
tt -5cm = temperatuur -5cm
tt -20cm = temperatuur -20cm
tt -100cm = temperatuur -100cm
ff = windsnelheid
fx = windstoten
dd = windrichting
ppp = luchtdruk
vv = zicht
sd = Zonneschijnduur
rr = neerslag

Weerstations in de omgeving